User: anonymous   Login
Location: Unspecified
(0.0000°N, 0.0000°E)
Time: 15:33:49
(UTC+00:00)
Language:

Nova 3 - Orbit

View from above orbital plane
View from above orbital plane
View from above satellite
View from above satellite

Ground track
Ground track

The orbit data is extracted from the following two-line orbital elements,

1 15362U 84110A   18114.91210045  .00000627  00000-0  14724-2 0  9993
2 15362  90.0559  56.2907 0033956  94.7218 330.1658 13.22750437618558
Epoch (UTC): 24 April 2018 21:53:25
Eccentricity: 0.0033956
inclination: 90.0559°
perigee height: 1148 km
apogee height: 1200 km
right ascension of ascending node: 56.2907°
argument of perigee: 94.7218°
revolutions per day: 13.22750437
mean anomaly at epoch: 330.1658°
orbit number at epoch: 61855

The dashed part of the orbit path shows where the satellite is in the earth's shadow,  

DLR